Time,TemperatureF,DewpointF,PressureIn,WindDirection,WindDirectionDegrees,WindSpeedMPH,WindSpeedGustMPH,Humidity,HourlyPrecipIn,Conditions,Clouds,dailyrainin,SoftwareType,DateUTC
2013-07-24 00:11:00,60.8,60.0,29.77,WNW,296,3.0,4.0,98,0.00,,,0.00,weatherlink.com 1.10,2013-07-24 04:11:00,
2013-07-24 00:26:00,60.8,60.0,29.77,NW,304,2.0,9.0,98,0.00,,,0.00,weatherlink.com 1.10,2013-07-24 04:26:00,
2013-07-24 00:41:00,60.7,60.0,29.77,WNW,286,3.0,8.0,98,0.00,,,0.00,weatherlink.com 1.10,2013-07-24 04:41:00,
2013-07-24 00:56:00,60.8,60.0,29.77,NW,306,7.0,9.0,98,0.00,,,0.00,weatherlink.com 1.10,2013-07-24 04:56:00,
2013-07-24 01:11:00,60.7,60.0,29.77,WSW,241,8.0,11.0,98,0.00,,,0.00,weatherlink.com 1.10,2013-07-24 05:11:00,
2013-07-24 01:26:00,60.7,61.0,29.77,WNW,295,6.0,12.0,99,0.00,,,0.00,weatherlink.com 1.10,2013-07-24 05:26:00,
2013-07-24 01:41:00,60.4,60.0,29.76,WNW,292,7.0,15.0,99,0.00,,,0.00,weatherlink.com 1.10,2013-07-24 05:41:00,
2013-07-24 01:56:00,59.9,60.0,29.75,NW,304,9.0,11.0,99,0.00,,,0.00,weatherlink.com 1.10,2013-07-24 05:56:00,
2013-07-24 02:11:00,59.9,60.0,29.75,SW,218,4.0,12.0,99,0.00,,,0.00,weatherlink.com 1.10,2013-07-24 06:11:00,
2013-07-24 02:26:00,60.0,60.0,29.75,WNW,300,2.0,12.0,99,0.00,,,0.00,weatherlink.com 1.10,2013-07-24 06:26:00,
2013-07-24 02:41:00,60.2,60.0,29.74,SSW,204,10.0,10.0,99,0.00,,,0.00,weatherlink.com 1.10,2013-07-24 06:41:00,
2013-07-24 02:56:00,60.2,60.0,29.74,SW,225,4.0,12.0,99,0.00,,,0.00,weatherlink.com 1.10,2013-07-24 06:56:00,
2013-07-24 03:11:00,60.4,60.0,29.73,NW,323,1.0,9.0,99,0.00,,,0.00,weatherlink.com 1.10,2013-07-24 07:11:00,
2013-07-24 03:26:00,60.5,60.0,29.73,West,268,5.0,6.0,99,0.00,,,0.00,weatherlink.com 1.10,2013-07-24 07:26:00,
2013-07-24 03:41:00,60.6,60.0,29.71,NW,309,4.0,12.0,99,0.00,,,0.00,weatherlink.com 1.10,2013-07-24 07:41:00,
2013-07-24 03:56:00,60.7,61.0,29.71,West,259,3.0,9.0,99,0.00,,,0.00,weatherlink.com 1.10,2013-07-24 07:56:00,
2013-07-24 04:11:00,60.8,61.0,29.71,NW,319,5.0,8.0,99,0.00,,,0.00,weatherlink.com 1.10,2013-07-24 08:11:00,
2013-07-24 04:26:00,60.5,60.0,29.71,NW,311,7.0,11.0,99,0.00,,,0.00,weatherlink.com 1.10,2013-07-24 08:26:00,
2013-07-24 04:41:00,60.5,60.0,29.71,WNW,300,4.0,13.0,99,0.00,,,0.00,weatherlink.com 1.10,2013-07-24 08:41:00,
2013-07-24 04:56:00,60.7,61.0,29.70,WNW,300,6.0,13.0,99,0.00,,,0.00,weatherlink.com 1.10,2013-07-24 08:56:00,
2013-07-24 05:11:00,60.7,61.0,29.70,NNW,340,4.0,12.0,99,0.00,,,0.00,weatherlink.com 1.10,2013-07-24 09:11:00,
2013-07-24 05:26:00,60.5,60.0,29.71,WNW,283,4.0,12.0,99,0.00,,,0.00,weatherlink.com 1.10,2013-07-24 09:26:00,
2013-07-24 05:41:00,60.3,60.0,29.71,NW,306,3.0,14.0,99,0.00,,,0.00,weatherlink.com 1.10,2013-07-24 09:41:00,
2013-07-24 05:56:00,60.5,60.0,29.72,NW,306,7.0,13.0,99,0.00,,,0.00,weatherlink.com 1.10,2013-07-24 09:56:00,
2013-07-24 06:11:00,60.8,61.0,29.72,WNW,293,7.0,15.0,99,0.00,,,0.00,weatherlink.com 1.10,2013-07-24 10:11:00,
2013-07-24 06:41:00,60.7,61.0,29.72,NNW,345,7.0,12.0,99,0.00,,,0.00,weatherlink.com 1.10,2013-07-24 10:41:00,
2013-07-24 06:56:00,60.9,61.0,29.72,NW,318,2.0,13.0,99,0.00,,,0.00,weatherlink.com 1.10,2013-07-24 10:56:00,
2013-07-24 07:11:00,60.9,61.0,29.73,NW,323,8.0,14.0,99,0.00,,,0.00,weatherlink.com 1.10,2013-07-24 11:11:00,
2013-07-24 07:27:00,60.7,61.0,29.73,WNW,300,5.0,17.0,99,0.00,,,0.00,weatherlink.com 1.10,2013-07-24 11:27:00,
2013-07-24 07:42:00,60.7,61.0,29.74,West,267,6.0,16.0,99,0.00,,,0.00,weatherlink.com 1.10,2013-07-24 11:42:00,
2013-07-24 07:57:00,60.6,60.0,29.74,South,187,3.0,16.0,99,0.00,,,0.00,weatherlink.com 1.10,2013-07-24 11:57:00,
2013-07-24 08:12:00,60.2,60.0,29.75,West,279,4.0,11.0,99,0.00,,,0.00,weatherlink.com 1.10,2013-07-24 12:12:00,
2013-07-24 08:27:00,60.2,60.0,29.75,NW,306,6.0,11.0,99,0.00,,,0.00,weatherlink.com 1.10,2013-07-24 12:27:00,
2013-07-24 08:42:00,60.2,60.0,29.75,SW,234,5.0,11.0,99,0.00,,,0.00,weatherlink.com 1.10,2013-07-24 12:42:00,
2013-07-24 08:57:00,60.4,60.0,29.76,WNW,300,3.0,10.0,99,0.00,,,0.00,weatherlink.com 1.10,2013-07-24 12:57:00,
2013-07-24 09:12:00,60.9,61.0,29.76,NW,305,10.0,10.0,99,0.00,,,0.00,weatherlink.com 1.10,2013-07-24 13:12:00,
2013-07-24 09:27:00,60.8,61.0,29.76,NW,323,6.0,13.0,99,0.00,,,0.00,weatherlink.com 1.10,2013-07-24 13:27:00,
2013-07-24 09:42:00,61.4,61.0,29.76,West,278,2.0,10.0,99,0.00,,,0.00,weatherlink.com 1.10,2013-07-24 13:42:00,
2013-07-24 09:57:00,61.2,61.0,29.77,WNW,298,4.0,14.0,99,0.00,,,0.00,weatherlink.com 1.10,2013-07-24 13:57:00,
2013-07-24 10:12:00,61.5,61.0,29.76,West,277,3.0,8.0,99,0.00,,,0.00,weatherlink.com 1.10,2013-07-24 14:12:00,
2013-07-24 10:27:00,62.1,62.0,29.76,West,265,10.0,10.0,99,0.00,,,0.00,weatherlink.com 1.10,2013-07-24 14:27:00,
2013-07-24 10:42:00,62.5,62.0,29.76,WNW,288,4.0,11.0,98,0.00,,,0.00,weatherlink.com 1.10,2013-07-24 14:42:00,
2013-07-24 10:57:00,63.3,63.0,29.77,West,269,7.0,12.0,97,0.00,,,0.00,weatherlink.com 1.10,2013-07-24 14:57:00,
2013-07-24 11:12:00,62.8,61.0,29.77,WNW,297,5.0,15.0,95,0.00,,,0.00,weatherlink.com 1.10,2013-07-24 15:12:00,
2013-07-24 11:27:00,63.2,62.0,29.77,WNW,297,6.0,10.0,95,0.00,,,0.00,weatherlink.com 1.10,2013-07-24 15:27:00,
2013-07-24 11:42:00,63.4,62.0,29.77,West,277,3.0,8.0,94,0.00,,,0.00,weatherlink.com 1.10,2013-07-24 15:42:00,
2013-07-24 11:57:00,63.6,62.0,29.77,NW,306,3.0,10.0,94,0.00,,,0.00,weatherlink.com 1.10,2013-07-24 15:57:00,
2013-07-24 12:12:00,65.0,63.0,29.77,WSW,240,1.0,9.0,92,0.00,,,0.00,weatherlink.com 1.10,2013-07-24 16:12:00,
2013-07-24 12:27:00,65.8,63.0,29.77,WSW,244,4.0,8.0,90,0.00,,,0.00,weatherlink.com 1.10,2013-07-24 16:27:00,
2013-07-24 12:42:00,66.2,62.0,29.77,West,265,4.0,11.0,87,0.00,,,0.00,weatherlink.com 1.10,2013-07-24 16:42:00,
2013-07-24 12:57:00,67.2,63.0,29.77,SSE,165,1.0,8.0,85,0.00,,,0.00,weatherlink.com 1.10,2013-07-24 16:57:00,
2013-07-24 13:12:00,67.1,62.0,29.76,WNW,298,2.0,7.0,84,0.00,,,0.00,weatherlink.com 1.10,2013-07-24 17:12:00,
2013-07-24 13:27:00,68.0,62.0,29.76,NW,322,3.0,9.0,80,0.00,,,0.00,weatherlink.com 1.10,2013-07-24 17:27:00,
2013-07-24 13:42:00,69.0,62.0,29.76,NNW,338,6.0,7.0,79,0.00,,,0.00,weatherlink.com 1.10,2013-07-24 17:42:00,
2013-07-24 13:57:00,68.4,63.0,29.76,WNW,300,1.0,6.0,82,0.00,,,0.00,weatherlink.com 1.10,2013-07-24 17:57:00,
2013-07-24 14:12:00,68.6,62.0,29.76,WNW,297,2.0,7.0,79,0.00,,,0.00,weatherlink.com 1.10,2013-07-24 18:12:00,
2013-07-24 14:27:00,68.3,62.0,29.76,WNW,300,4.0,5.0,80,0.00,,,0.00,weatherlink.com 1.10,2013-07-24 18:27:00,
2013-07-24 14:42:00,68.6,62.0,29.76,NW,326,0.0,6.0,79,0.00,,,0.00,weatherlink.com 1.10,2013-07-24 18:42:00,
2013-07-24 14:57:00,69.5,62.0,29.75,NW,313,1.0,7.0,77,0.00,,,0.00,weatherlink.com 1.10,2013-07-24 18:57:00,
2013-07-24 15:12:00,70.3,64.0,29.75,NNW,342,3.0,7.0,79,0.00,,,0.00,weatherlink.com 1.10,2013-07-24 19:12:00,
2013-07-24 15:27:00,69.5,62.0,29.75,WSW,250,1.0,9.0,78,0.00,,,0.00,weatherlink.com 1.10,2013-07-24 19:27:00,
2013-07-24 15:42:00,68.7,62.0,29.75,WSW,255,4.0,7.0,80,0.00,,,0.00,weatherlink.com 1.10,2013-07-24 19:42:00,
2013-07-24 15:58:00,69.2,62.0,29.75,WSW,253,1.0,8.0,77,0.00,,,0.00,weatherlink.com 1.10,2013-07-24 19:58:00,
2013-07-24 16:13:00,69.2,61.0,29.74,SSW,204,1.0,12.0,76,0.00,,,0.00,weatherlink.com 1.10,2013-07-24 20:13:00,
2013-07-24 16:28:00,69.5,61.0,29.74,West,279,2.0,6.0,74,0.00,,,0.00,weatherlink.com 1.10,2013-07-24 20:28:00,
2013-07-24 16:43:00,69.2,61.0,29.74,NW,306,0.0,8.0,75,0.00,,,0.00,weatherlink.com 1.10,2013-07-24 20:43:00,
2013-07-24 16:58:00,68.6,62.0,29.73,WNW,290,4.0,7.0,78,0.00,,,0.00,weatherlink.com 1.10,2013-07-24 20:58:00,
2013-07-24 17:13:00,68.2,62.0,29.73,West,273,3.0,8.0,81,0.00,,,0.00,weatherlink.com 1.10,2013-07-24 21:13:00,
2013-07-24 17:27:00,68.0,62.0,29.73,WNW,302,6.0,6.0,81,0.00,,,0.00,weatherlink.com 1.10,2013-07-24 21:27:00,
2013-07-24 17:43:00,67.9,61.0,29.73,WNW,300,3.0,8.0,79,0.00,,,0.00,weatherlink.com 1.10,2013-07-24 21:43:00,
2013-07-24 17:58:00,67.4,61.0,29.73,NNW,347,4.0,5.0,81,0.00,,,0.00,weatherlink.com 1.10,2013-07-24 21:58:00,
2013-07-24 18:13:00,66.6,60.0,29.73,WNW,296,1.0,7.0,80,0.00,,,0.00,weatherlink.com 1.10,2013-07-24 22:13:00,
2013-07-24 18:28:00,66.8,59.0,29.73,NNW,327,4.0,9.0,77,0.00,,,0.00,weatherlink.com 1.10,2013-07-24 22:28:00,
2013-07-24 18:43:00,66.8,60.0,29.73,WNW,290,4.0,6.0,78,0.00,,,0.00,weatherlink.com 1.10,2013-07-24 22:43:00,
2013-07-24 18:58:00,65.8,60.0,29.73,East,84,1.0,5.0,81,0.00,,,0.00,weatherlink.com 1.10,2013-07-24 22:58:00,
2013-07-24 19:13:00,65.0,59.0,29.74,WNW,294,1.0,6.0,80,0.00,,,0.00,weatherlink.com 1.10,2013-07-24 23:13:00,
2013-07-24 19:28:00,64.2,59.0,29.75,SSW,202,2.0,6.0,82,0.00,,,0.00,weatherlink.com 1.10,2013-07-24 23:28:00,
2013-07-24 19:43:00,63.7,59.0,29.76,WSW,257,4.0,5.0,84,0.00,,,0.00,weatherlink.com 1.10,2013-07-24 23:43:00,
2013-07-24 19:58:00,63.2,59.0,29.77,West,278,1.0,7.0,86,0.00,,,0.00,weatherlink.com 1.10,2013-07-24 23:58:00,
2013-07-24 20:13:00,62.7,59.0,29.77,NW,314,0.0,6.0,88,0.00,,,0.00,weatherlink.com 1.10,2013-07-25 00:13:00,
2013-07-24 20:28:00,62.2,59.0,29.76,WSW,247,1.0,5.0,90,0.00,,,0.00,weatherlink.com 1.10,2013-07-25 00:28:00,
2013-07-24 20:43:00,61.5,59.0,29.77,NW,306,0.0,1.0,91,0.00,,,0.00,weatherlink.com 1.10,2013-07-25 00:43:00,
2013-07-24 20:58:00,61.5,60.0,29.77,SW,217,0.0,7.0,93,0.00,,,0.00,weatherlink.com 1.10,2013-07-25 00:58:00,
2013-07-24 21:13:00,61.4,60.0,29.77,West,279,2.0,6.0,94,0.00,,,0.00,weatherlink.com 1.10,2013-07-25 01:13:00,
2013-07-24 21:28:00,61.1,60.0,29.77,WNW,289,4.0,7.0,95,0.00,,,0.00,weatherlink.com 1.10,2013-07-25 01:28:00,
2013-07-24 21:43:00,60.9,59.0,29.78,West,276,2.0,10.0,94,0.00,,,0.00,weatherlink.com 1.10,2013-07-25 01:43:00,
2013-07-24 21:58:00,60.7,59.0,29.78,WNW,282,2.0,6.0,94,0.00,,,0.00,weatherlink.com 1.10,2013-07-25 01:58:00,
2013-07-24 22:13:00,60.3,59.0,29.78,SSW,204,4.0,8.0,95,0.00,,,0.00,weatherlink.com 1.10,2013-07-25 02:13:00,
2013-07-24 22:28:00,60.0,59.0,29.78,WSW,238,4.0,6.0,95,0.00,,,0.00,weatherlink.com 1.10,2013-07-25 02:28:00,
2013-07-24 22:43:00,60.0,59.0,29.78,North,355,1.0,6.0,96,0.00,,,0.00,weatherlink.com 1.10,2013-07-25 02:43:00,
2013-07-24 22:58:00,59.9,59.0,29.78,WSW,239,3.0,7.0,97,0.00,,,0.00,weatherlink.com 1.10,2013-07-25 02:58:00,
2013-07-24 23:13:00,59.8,59.0,29.78,SSW,210,0.0,7.0,97,0.00,,,0.00,weatherlink.com 1.10,2013-07-25 03:13:00,
2013-07-24 23:43:00,59.9,59.0,29.78,SW,218,1.0,5.0,98,0.00,,,0.00,weatherlink.com 1.10,2013-07-25 03:43:00,
2013-07-24 23:58:00,59.7,59.0,29.78,SW,225,0.0,5.0,98,0.00,,,0.00,weatherlink.com 1.10,2013-07-25 03:58:00,